User: anonymous   Login
Location: Unspecified
(0.0000°N, 0.0000°E)
Time: 21:06:23
(UTC+00:00)
Language:

CZ-3 Stage 3 - Orbit

View from above orbital plane
View from above orbital plane
View from above satellite
View from above satellite

Ground track
Ground track

The orbit data is extracted from the following two-line orbital elements,

1 14900U 84035B   19291.62617956 -.00000067 +00000-0 +33741-4 0  9994
2 14900 030.4760 115.4376 7164556 090.9375 344.2465 02.33884102234738
Epoch (UTC): 18 October 2019 15:01:41
Eccentricity: 0.7164556
inclination: 30.4760°
perigee height: 419 km
apogee height: 34771 km
right ascension of ascending node: 115.4376°
argument of perigee: 90.9375°
revolutions per day: 2.33884102
mean anomaly at epoch: 344.2465°
orbit number at epoch: 23473

The dashed part of the orbit path shows where the satellite is in the earth's shadow,  

DLR